Location: Oshawa
(43.9000°N, 78.8670°W)
Time: 06:20:20
(UTC-05:00)

Cosmos 1707 Rocket - Visible Passes

Search period start: 23 November 2017 00:00
Search period end: 03 December 2017 00:00
Orbit: 605 x 632 km, 82.5° (Epoch: 22 November)

Date Brightness Start Highest point End Pass type
(mag) Time Alt. Az. Time Alt. Az. Time Alt. Az.
23 Nov 5.5 17:24:15 10° SW 17:28:13 31° WNW 17:32:12 10° N visible
24 Nov 6.3 17:42:32 10° WSW 17:45:38 18° WNW 17:48:45 10° NNW visible
25 Nov 6.7 18:02:18 10° WNW 18:03:10 10° WNW 18:04:01 10° NW visible
28 Nov 6.2 17:13:40 10° WSW 17:16:39 18° WNW 17:19:40 10° NNW visible
